This demonstration page uses our WeatherBlox Daily Observations layout. Learn more.

Left ArrowRight Arrow

44.89941, -97.11507

Hourly Observations for January 30, 2016

Temp ( °F °C ) Dew Point ( °F °C ) Humidity (%) Winds ( mph kmh ) Pressure ( in mb ) Visibility ( mi km ) Precip ( " mm )
12:53 am 00:53 Clear 28 -2.2 25 -3.9 88 88 SW 8 13 29.60 1002 10 16 0.00 0.00
1:53 am 01:53 Clear 28 -2.2 25 -3.9 88 88 S 3 6 29.57 1001 10 16 0.00 0.00
2:53 am 02:53 Mostly Cloudy 26 -3.3 22 -5.6 84 84 S 6 9 29.59 1002 10 16 0.00 0.00
3:53 am 03:53 Mostly Cloudy 27 -2.8 24 -4.4 89 89 S 6 9 29.56 1001 10 16 0.00 0.00
4:53 am 04:53 Clear 27 -2.8 24 -4.4 89 89 S 8 13 29.56 1001 10 16 0.00 0.00
5:53 am 05:53 Partly Cloudy 29 -1.7 25 -3.9 85 85 SSE 7 11 29.56 1001 10 16 0.00 0.00
6:53 am 06:53 Mostly Clear 29 -1.7 25 -3.9 85 85 S 7 11 29.54 1000 10 16 0.00 0.00
7:53 am 07:53 Sunny 29 -1.7 25 -3.9 85 85 Calm 29.52 1000 10 16 0.00 0.00
8:53 am 08:53 Sunny 30 -1.1 25 -3.9 82 82 SSE 6 9 29.51 999 10 16 0.00 0.00
9:53 am 09:53 Cloudy 32 0 27 -2.8 82 82 E 5 7 29.52 1000 10 16 0.00 0.00
10:53 am 10:53 Mostly Cloudy 35 1.7 29 -1.7 78 78 N 3 6 29.52 1000 10 16 0.00 0.00
11:53 am 11:53 Cloudy 38 3.3 29 -1.7 70 70 N 3 6 29.51 999 10 16 0.00 0.00
12:53 pm 12:53 Cloudy 39 3.9 29 -1.7 67 67 Calm 29.50 999 10 16 0.00 0.00
1:53 pm 13:53 Cloudy 39 3.9 29 -1.7 67 67 NW 6 9 29.51 999 10 16 0.00 0.00
2:53 pm 14:53 Cloudy 39 3.9 30 -1.1 70 70 NW 8 13 29.51 999 10 16 0.00 0.00
3:53 pm 15:53 Cloudy 38 3.3 30 -1.1 73 73 N 8 13 29.52 1000 10 16 0.00 0.00
4:53 pm 16:53 Cloudy 39 3.9 30 -1.1 70 70 WNW 6 9 29.57 1001 10 16 0.00 0.00
5:53 pm 17:53 Cloudy 37 2.8 31 -0.6 79 79 NW 5 7 29.58 1002 10 16 0.00 0.00
6:53 pm 18:53 Mostly Cloudy 38 3.3 29 -1.7 70 70 WNW 7 11 29.58 1002 10 16 0.00 0.00
7:53 pm 19:53 Cloudy 37 2.8 30 -1.1 76 76 NW 5 7 29.59 1002 10 16 0.00 0.00
8:53 pm 20:53 Clear 35 1.7 30 -1.1 82 82 Calm 29.62 1003 10 16 0.00 0.00
9:53 pm 21:53 Cloudy 35 1.7 30 -1.1 82 82 SW 7 11 29.63 1003 10 16 0.00 0.00
10:53 pm 22:53 Cloudy 34 1.1 31 -0.6 89 89 Calm 29.63 1003 10 16 0.00 0.00
11:53 pm 23:53 Cloudy 34 1.1 31 -0.6 89 89 SSW 3 6 29.62 1003 10 16 0.00 0.00

Powered by AerisWeather